TimeCET,TemperatureF,Dew PointF,Humidity,Sea Level PressureIn,VisibilityMPH,Wind Direction,Wind SpeedMPH,Gust SpeedMPH,PrecipitationIn,Events,Conditions,WindDirDegrees,DateUTC
12:00 AM,32.0,28.4,87,29.77,4.3,NW,6.9,-,N/A,,Unknown,320,2013-02-06 23:00:00
12:30 AM,30.2,28.4,93,29.77,3.7,NW,4.6,-,N/A,,Unknown,310,2013-02-06 23:30:00
1:00 AM,30.2,26.6,86,29.80,3.1,NW,5.8,-,N/A,,Mist,320,2013-02-07 00:00:00
1:30 AM,30.2,26.6,86,29.80,3.7,WNW,4.6,-,N/A,,Unknown,300,2013-02-07 00:30:00
2:00 AM,28.4,24.8,86,29.80,-9999.0,Variable,3.5,-,N/A,,Mist,0,2013-02-07 01:00:00
2:30 AM,26.6,26.6,100,29.80,-9999.0,North,3.5,-,N/A,,Mist,10,2013-02-07 01:30:00
3:00 AM,24.8,23.0,93,29.83,1.4,ENE,4.6,-,N/A,,Mist,60,2013-02-07 02:00:00
3:30 AM,24.8,23.0,93,29.83,0.2,ESE,3.5,-,N/A,Fog,Light Freezing Fog,110,2013-02-07 02:30:00
4:00 AM,24.8,23.0,93,29.83,0.2,ENE,3.5,-,N/A,Fog,Light Freezing Fog,70,2013-02-07 03:00:00
5:00 AM,24.8,23.0,93,29.86,0.9,Variable,2.3,-,N/A,,Mist,0,2013-02-07 04:00:00
5:30 AM,28.4,26.6,93,29.86,-9999.0,East,3.5,-,N/A,,Mostly Cloudy,90,2013-02-07 04:30:00
6:00 AM,28.4,26.6,93,29.86,1.9,Variable,2.3,-,N/A,,Overcast,0,2013-02-07 05:00:00
6:30 AM,28.4,28.4,100,29.89,1.9,Variable,2.3,-,N/A,,Overcast,0,2013-02-07 05:30:00
7:00 AM,30.2,28.4,93,29.89,1.7,ESE,1.2,-,N/A,,Overcast,110,2013-02-07 06:00:00
7:30 AM,30.2,28.4,93,29.92,1.3,Calm,Calm,-,N/A,Snow,Light Snow,0,2013-02-07 06:30:00
8:00 AM,30.2,30.2,100,29.92,0.7,West,2.3,-,N/A,Snow,Light Snow,270,2013-02-07 07:00:00
8:30 AM,30.2,28.4,93,29.95,1.0,SSW,2.3,-,N/A,,Overcast,210,2013-02-07 07:30:00
9:00 AM,30.2,28.4,93,29.95,0.2,Variable,2.3,-,N/A,Fog,Light Freezing Fog,0,2013-02-07 08:00:00
9:30 AM,30.2,28.4,93,29.95,0.2,WSW,3.5,-,N/A,Fog,Light Freezing Fog,240,2013-02-07 08:30:00
10:00 AM,32.0,30.2,93,29.98,1.0,SW,4.6,-,N/A,,Overcast,230,2013-02-07 09:00:00
10:30 AM,32.0,32.0,100,29.98,-9999.0,SSW,4.6,-,N/A,,Overcast,210,2013-02-07 09:30:00
11:00 AM,32.0,32.0,100,29.98,1.7,SW,3.5,-,N/A,,Overcast,220,2013-02-07 10:00:00
11:30 AM,33.8,32.0,93,29.98,1.7,Variable,3.5,-,N/A,,Overcast,0,2013-02-07 10:30:00
12:00 PM,33.8,32.0,93,30.01,-9999.0,SSW,4.6,-,N/A,,Overcast,210,2013-02-07 11:00:00
12:30 PM,35.6,32.0,87,30.01,3.1,West,6.9,-,N/A,,Overcast,280,2013-02-07 11:30:00
1:00 PM,33.8,32.0,93,30.01,3.7,North,5.8,-,N/A,Snow,Light Snow,10,2013-02-07 12:00:00
1:30 PM,35.6,32.0,87,30.01,6.2,NE,4.6,-,N/A,,Overcast,50,2013-02-07 12:30:00
2:00 PM,33.8,32.0,93,30.01,5.6,North,6.9,-,N/A,Rain-Snow,Light Snow,360,2013-02-07 13:00:00
2:30 PM,35.6,33.8,93,29.98,6.2,East,3.5,-,N/A,,Mostly Cloudy,100,2013-02-07 13:30:00
3:00 PM,35.6,32.0,87,29.98,6.2,NNW,6.9,-,N/A,Rain,Light Rain,330,2013-02-07 14:00:00
3:30 PM,35.6,32.0,87,30.01,6.2,North,4.6,-,N/A,,Mostly Cloudy,360,2013-02-07 14:30:00
4:00 PM,33.8,32.0,93,30.01,5.0,NW,6.9,-,N/A,Rain-Snow,Light Snow,310,2013-02-07 15:00:00
4:30 PM,35.6,32.0,87,30.01,6.2,NW,3.5,-,N/A,,Overcast,320,2013-02-07 15:30:00
5:00 PM,37.4,32.0,81,30.01,6.2,NNW,5.8,-,N/A,,Unknown,330,2013-02-07 16:00:00
6:00 PM,37.4,28.4,70,30.01,6.2,NW,6.9,-,N/A,,Unknown,310,2013-02-07 17:00:00
6:30 PM,35.6,30.2,81,30.01,6.2,WNW,5.8,-,N/A,,Unknown,300,2013-02-07 17:30:00
7:00 PM,35.6,30.2,81,30.01,6.2,WNW,4.6,-,N/A,,Unknown,290,2013-02-07 18:00:00
7:30 PM,35.6,30.2,81,30.01,6.2,West,4.6,-,N/A,,Unknown,280,2013-02-07 18:30:00
8:00 PM,33.8,30.2,87,30.01,6.2,West,5.8,-,N/A,,Unknown,260,2013-02-07 19:00:00
8:30 PM,33.8,30.2,87,30.01,6.2,West,5.8,-,N/A,,Overcast,260,2013-02-07 19:30:00
9:00 PM,33.8,30.2,87,30.01,6.2,WSW,6.9,-,N/A,,Mostly Cloudy,250,2013-02-07 20:00:00
9:30 PM,33.8,30.2,87,30.01,6.2,West,4.6,-,N/A,,Unknown,260,2013-02-07 20:30:00
10:00 PM,33.8,30.2,87,30.01,6.2,Variable,3.5,-,N/A,,Unknown,0,2013-02-07 21:00:00
10:30 PM,32.0,30.2,93,30.01,6.2,SSW,4.6,-,N/A,,Unknown,210,2013-02-07 21:30:00
11:00 PM,32.0,30.2,93,30.01,6.2,SSW,5.8,-,N/A,,Overcast,210,2013-02-07 22:00:00
11:30 PM,33.8,30.2,87,30.01,6.2,SW,5.8,-,N/A,,Overcast,230,2013-02-07 22:30:00